{"data":{"norad_id":69799,"epoch":"2026-09-19T04:32:30.697152Z","epoch_age_seconds":134878,"freshness":"FRESH","line1":"1 69799U 98067YP  26262.18924418  .00043519  00000+0  61390-3 0  9998","line2":"2 69799  51.6292 192.7813 0010708 162.0187 198.1185 15.56087107 12241","mean_motion":15.56087107,"eccentricity":0.0010708,"inclination_deg":51.6292,"raan_deg":192.7813,"arg_perigee_deg":162.0187,"mean_anomaly_deg":198.1185,"bstar":0.0006139,"rev_number":1224,"period_min":92.539806642071,"perigee_km":391.73743108451,"apogee_km":406.25133565513,"semimajor_km":6777.1313833698,"source":"CELESTRAK","updated_at":"2026-09-20T09:00:25.118442Z"}}